Location: Fouquenies
(49.4624°N, 2.0492°E)
Time: 23:32:01
(UTC+00:00)

Cosmos 2278 Rocket - Pass Details

Date: 03 February 2023
Orbit: 841 x 845 km, 71.0° (Epoch: 01 April)

Event Time Altitude Azimuth Distance (km) Brightness Sun altitude
Rises 19:54:36 0° 331° (NNW) 3,416 5.9 -30.0°
Reaches altitude 10° 19:57:05 10° 334° (NNW) 2,477 5.0 -30.4°
Enters shadow 20:00:55 44° 344° (NNW) 1,158 3.0 -31.0°
